Overview Statistics Trail Chart Weather Telemetry Raw packets
 

This is the latest recevied weather packets stored in our database for station/object KO6LQK. If no packets are shown the sender has not sent any weather packets the latest 10 day(s).

<< 31 32 33 34 35 36 37 >>
Time Temp. Humidity Pressure Rain* Wind** Luminosity Snow
1788212805 31.67° C 16% 1020.6 hPa 0 mm - 821 W/m² -
1788212502 31.11° C 16% 1020.4 hPa 0 mm - 827 W/m² -
1788212197 31.67° C 14% 1020.4 hPa 0 mm - 839 W/m² -
1788211892 31.11° C 16% 1020.7 hPa 0 mm - 851 W/m² -
1788211589 31.11° C 14% 1020.5 hPa 0 mm - 863 W/m² -
1788211297 31.11° C 15% 1020.5 hPa 0 mm - 871 W/m² -
1788210984 31.67° C 19% 1020.3 hPa 0 mm - 886 W/m² -
1788210684 31.67° C 20% 1020.6 hPa 0 mm - 887 W/m² -
1788210387 31.67° C 19% 1020.5 hPa 0 mm - 896 W/m² -
1788210075 30.56° C 21% 1020.6 hPa 0 mm - 906 W/m² -
1788209774 30.56° C 21% 1020.4 hPa 0 mm - 909 W/m² -
1788209470 31.11° C 22% 1020.7 hPa 0 mm - 909 W/m² -
1788209165 30.56° C 21% 1020.7 hPa 0 mm - 913 W/m² -
1788208863 30.56° C 21% 1020.7 hPa 0 mm - 925 W/m² -
1788208563 31.11° C 20% 1020.8 hPa 0 mm - 925 W/m² -
1788208262 31.11° C 21% 1020.5 hPa 0 mm - 918 W/m² -
1788207961 31.11° C 20% 1020.5 hPa 0 mm - 926 W/m² -
1788207662 31.11° C 21% 1020.5 hPa 0 mm - 920 W/m² -
1788207361 30.56° C 20% 1020.7 hPa 0 mm - 925 W/m² -
1788207056 30.56° C 19% 1020.5 hPa 0 mm - 932 W/m² -
1788206752 31.11° C 18% 1020.7 hPa 0 mm - 929 W/m² -
1788206452 30.56° C 18% 1020.7 hPa 0 mm - 925 W/m² -
1788206148 30.56° C 18% 1020.8 hPa 0 mm - 933 W/m² -
1788205842 30.56° C 17% 1020.7 hPa 0 mm - 934 W/m² -
1788205538 30.56° C 18% 1020.9 hPa 0 mm - 930 W/m² -

* Rain latest hour (hover to see other rain measurements)
** Current wind speed in m/s (hover to see current wind gust speed)